CAPE
nan nan nan nan nan nan nan nan nan nan nan nan nan nan nan nan nan nan nan nan nan nan nan nan nan nan nan nan nan nan nan nan nan nan 0 3 6 6 12 14 14 16 18 18 18 19 20 20 20 22 24 25 29 29 33 35 35 37 43 47 47 54 62 68 68 71 81 78 80 80 83 84 82 82 81 80 84 84 87 96 96 94 97 102 102 106
nan nan nan nan nan nan nan nan nan nan nan nan nan nan nan nan nan nan nan nan nan nan nan nan nan nan nan nan nan nan nan nan nan nan 0 3 7 7 11 13 13 14 17 17 17 18 19 19 19 20 22 25 27 27 31 33 33 34 39 45 45 52 60 68 68 69 76 80 81 81 79 79 77 77 76 78 80 80 88 89 89 85 91 96 96 108
nan nan nan nan nan nan nan nan nan nan nan nan nan nan nan nan nan nan nan nan nan nan nan nan nan nan nan nan nan nan nan nan nan nan 1 3 7 7 9 12 12 13 14 15 15 16 17 18 18 20 22 24 26 26 31 35 35 35 37 41 41 47 53 60 60 66 70 74 75 75 72 70 68 68 74 78 81 81 88 92 92 87 89 99 99 109
nan nan nan nan nan nan nan nan nan nan nan nan nan nan nan nan nan nan nan nan nan nan nan nan nan nan nan nan nan nan nan nan nan nan 1 3 5 5 7 9 9 9 10 12 12 13 15 18 18 21 21 23 26 26 27 32 32 35 36 38 38 45 49 56 56 62 65 67 65 65 61 61 61 61 66 74 79 79 80 81 81 76 81 94 94 109
nan nan nan nan nan nan nan nan nan nan nan nan nan nan nan nan nan nan nan nan nan nan nan nan nan nan nan nan nan nan nan nan nan nan 0 1 3 3 3 4 4 5 5 6 6 9 12 16 16 19 22 23 24 24 26 29 29 33 37 37 37 44 48 52 52 56 58 57 56 56 56 55 56 56 59 61 65 65 68 67 67 66 71 86 86 102
nan nan nan nan nan nan nan nan nan nan nan nan nan nan nan nan nan nan nan nan nan nan nan nan nan nan nan nan nan nan nan nan nan nan nan 0 0 0 1 1 1 2 3 4 4 5 8 11 11 15 18 20 22 22 25 28 28 31 36 39 39 45 46 47 47 48 49 50 51 51 50 48 50 50 50 50 55 55 57 61 61 63 68 78 78 89
nan nan nan nan nan nan nan nan nan nan nan nan nan nan nan nan nan nan nan nan nan nan nan nan nan nan nan nan nan nan nan nan nan nan nan nan nan nan 0 0 0 1 3 4 4 6 8 9 9 12 14 18 20 20 22 24 24 29 34 36 36 39 43 45 45 44 44 45 42 42 40 39 40 40 40 41 46 46 52 57 57 61 69 73 73 83
nan nan nan nan nan nan nan nan nan nan nan nan nan nan nan nan nan nan nan 0 0 nan nan nan nan nan nan nan nan nan nan nan nan nan nan nan nan nan nan 0 0 1 2 3 3 4 4 6 6 8 10 12 15 15 19 20 20 21 23 25 25 26 28 29 29 29 31 30 29 29 28 28 29 29 31 31 35 35 41 47 47 59 69 82 82 93
nan nan nan nan nan nan nan nan nan nan nan nan nan nan nan nan nan nan nan nan nan nan nan nan nan nan nan nan nan nan nan nan nan nan nan nan nan nan nan 0 0 1 2 2 2 3 3 5 5 7 9 10 12 12 13 14 14 16 16 18 18 19 22 24 24 24 25 25 26 26 26 25 26 26 29 30 35 35 39 48 48 59 72 93 93 113
nan nan nan nan nan nan nan nan nan nan nan nan nan nan nan nan nan nan nan nan nan nan nan nan nan nan nan nan nan nan nan nan 0 0 1 nan 1 1 0 nan nan nan 1 1 1 2 2 4 4 5 6 7 8 8 8 8 8 8 9 10 10 13 16 18 18 19 21 23 26 26 27 27 27 27 32 36 37 37 43 46 46 59 81 104 104 119
nan nan nan nan nan nan nan nan nan nan nan nan nan nan nan nan nan nan nan nan nan nan nan nan nan nan nan nan nan nan nan nan nan nan nan 1 1 1 0 0 0 0 1 1 1 1 1 1 1 2 2 2 2 2 3 2 2 3 5 6 6 8 10 13 13 15 17 22 24 24 27 28 34 34 38 44 46 46 51 59 59 69 87 111 111 124
nan nan nan nan nan nan nan nan nan nan nan nan nan nan nan nan 0 0 nan nan nan nan nan nan nan nan nan nan nan nan nan nan nan nan nan nan nan nan nan nan nan nan nan 0 0 nan nan 0 0 0 nan nan nan nan 0 nan nan 1 1 3 3 5 7 11 11 15 19 25 26 26 29 36 41 41 47 50 56 56 60 62 62 70 84 110 110 125
nan nan nan nan nan nan nan nan nan nan nan nan nan nan nan nan nan nan nan nan nan nan nan nan nan nan nan nan nan nan nan nan nan nan nan nan nan nan nan nan nan nan nan nan nan nan nan nan nan nan nan nan nan nan nan nan nan 0 0 2 2 4 8 13 13 18 23 26 29 29 36 41 44 44 50 54 59 59 61 67 67 75 86 104 104 120
nan nan nan nan nan nan nan nan nan nan nan nan nan nan nan nan nan nan nan nan nan nan 0 0 0 0 nan nan nan nan nan nan nan nan nan nan nan nan nan nan nan nan nan nan nan nan nan nan nan nan nan nan nan nan nan nan nan 0 1 3 3 6 12 17 17 22 26 28 32 32 39 44 48 48 50 56 60 60 67 70 70 78 89 101 101 116
nan 0 nan nan nan nan nan nan nan nan nan nan nan nan nan nan nan nan nan nan nan 1 2 2 2 1 nan nan nan nan 0 0 nan nan nan nan 0 0 nan nan nan nan nan nan nan nan nan nan nan nan nan nan nan nan nan nan nan 1 2 5 5 10 14 19 19 24 27 29 32 32 38 45 46 46 52 59 63 63 70 75 75 81 85 95 95 106
0 nan nan nan nan nan nan nan nan nan 0 0 0 0 nan nan nan nan nan 2 2 5 6 5 5 2 nan nan nan nan nan 2 1 1 0 nan nan nan nan nan nan nan nan nan nan nan nan nan nan nan nan nan nan nan nan 0 0 2 5 9 9 13 17 22 22 25 28 30 34 34 39 46 48 48 54 57 62 62 71 74 74 78 85 89 89 95
1 0 nan nan nan nan nan 1 1 1 1 0 0 0 nan nan 1 1 4 8 8 10 9 6 6 4 1 0 nan nan 0 3 6 6 2 0 nan nan nan nan nan nan nan nan nan nan nan nan nan nan nan nan nan nan nan 0 0 3 7 10 10 14 17 21 21 25 28 31 34 34 39 45 48 48 51 57 62 62 67 77 77 78 84 88 88 91
2 1 1 1 1 1 1 1 0 0 2 0 0 0 0 3 6 6 11 14 14 9 8 7 7 5 3 2 nan nan 2 4 5 5 2 0 nan nan nan nan nan nan nan nan nan nan nan nan nan nan nan nan nan nan 0 1 1 3 6 10 10 14 16 21 21 26 29 32 35 35 38 43 45 45 50 53 56 56 63 72 72 77 80 87 87 90
3 2 3 5 5 4 3 1 0 0 nan nan 1 1 4 9 12 12 13 12 12 12 9 8 8 8 5 2 0 0 4 6 5 5 3 1 nan nan nan nan nan nan nan nan nan nan nan nan nan nan nan nan nan nan 0 2 2 3 5 8 8 11 16 21 21 26 30 33 34 34 37 42 43 43 44 50 55 55 60 66 66 71 74 77 77 81
4 4 5 4 4 3 2 1 1 1 1 3 7 7 12 15 16 16 14 12 12 13 13 9 9 9 6 4 2 2 5 7 5 5 4 1 nan nan nan nan nan nan nan nan nan nan nan nan nan nan nan nan 0 0 1 1 1 2 4 6 6 10 14 20 20 26 30 32 33 33 35 36 38 38 39 41 47 47 54 56 56 63 70 71 71 79
2 3 4 3 3 3 4 5 6 6 13 22 27 27 20 14 11 11 9 11 11 11 16 16 16 12 7 6 3 3 5 4 5 5 5 2 nan nan nan nan nan nan nan nan nan nan nan nan nan nan nan nan 0 0 0 1 1 1 3 6 6 9 14 19 19 24 29 30 31 31 33 36 34 34 35 37 40 40 47 51 51 56 63 69 69 74
3 5 7 9 9 7 13 14 20 20 22 26 17 17 11 12 10 10 9 9 9 11 13 17 17 15 8 3 2 2 5 5 5 5 5 2 nan nan nan nan nan nan nan nan nan nan nan nan nan nan nan nan 0 0 0 1 1 1 3 6 6 10 14 17 17 22 27 27 30 30 32 34 34 34 34 35 37 37 40 48 48 53 57 61 61 67
11 7 7 10 10 12 17 12 11 11 13 17 16 16 9 1 1 1 2 8 8 15 18 15 15 11 6 3 2 2 4 5 6 6 5 2 nan nan nan nan nan nan nan nan nan nan nan nan nan nan nan 0 0 0 0 1 1 2 4 7 7 9 12 15 15 17 20 25 28 28 31 34 32 32 32 35 35 35 39 42 42 47 51 53 53 55
15 12 10 8 8 13 14 12 14 14 14 17 11 11 0 0 9 9 16 23 23 10 5 4 4 4 4 3 1 1 1 4 6 6 4 0 nan nan nan nan nan nan nan nan nan nan nan nan nan nan nan nan 0 0 0 0 0 1 4 6 6 8 9 11 11 13 16 20 25 25 27 31 31 31 31 32 31 31 33 37 37 41 47 48 48 50
12 10 8 8 8 19 17 20 24 24 40 55 31 31 5 4 10 10 6 5 5 4 3 3 3 2 1 2 nan nan 0 2 4 4 2 0 nan nan nan nan nan nan nan nan nan nan nan nan nan nan nan nan nan nan 0 1 1 2 4 5 5 5 7 9 9 10 13 15 18 18 22 25 27 27 30 30 30 30 31 34 34 40 41 46 46 48
11 11 11 16 16 26 34 41 50 50 61 36 17 17 8 6 5 5 3 2 2 2 2 3 3 2 1 0 nan nan nan 2 3 3 1 0 nan nan nan nan nan nan nan nan nan nan nan nan nan nan nan nan nan nan 0 1 1 2 3 4 4 5 6 7 7 9 9 10 13 13 15 19 25 25 28 30 30 30 33 37 37 40 40 44 44 48
6 13 22 28 28 29 33 38 39 39 39 28 16 16 12 7 5 5 2 1 1 2 3 2 2 2 1 1 nan nan nan 0 0 0 0 nan nan nan nan nan nan nan nan nan nan nan nan nan nan nan nan nan nan nan 0 1 1 2 3 3 3 3 4 5 5 6 7 8 9 9 13 17 22 22 26 29 30 30 35 40 40 40 42 44 44 45
2 9 14 18 18 21 21 23 25 25 26 30 30 30 18 7 3 3 1 0 0 2 3 3 3 2 1 0 nan nan nan nan nan nan nan 0 0 0 nan nan nan 0 0 nan nan 1 2 0 0 nan nan nan nan nan 0 2 2 2 2 2 2 2 4 5 5 5 6 7 10 10 13 16 20 20 23 28 31 31 34 39 39 41 44 34 34 18
5 6 8 10 10 10 12 15 16 16 16 15 15 15 9 4 2 2 1 1 1 3 3 3 3 2 1 0 nan nan nan nan nan nan nan 1 0 0 0 0 0 1 0 0 0 1 2 0 0 nan nan nan nan nan nan 1 1 0 1 1 1 2 2 3 3 5 5 7 9 9 12 14 18 18 22 26 30 30 32 38 38 40 35 26 26 17
7 6 4 3 3 4 5 3 3 3 5 6 6 6 4 2 2 2 1 3 3 4 3 3 3 2 2 1 0 0 nan nan nan nan 1 1 0 0 0 0 0 0 0 0 0 0 0 nan nan nan nan nan nan nan nan nan nan nan nan 1 1 1 1 2 2 3 5 6 7 7 10 13 17 17 19 22 27 27 30 33 33 29 17 15 15 14
3 2 0 0 0 0 0 nan nan nan 1 2 2 2 2 1 2 2 2 4 4 4 2 2 2 2 2 1 1 1 nan nan 0 0 1 1 1 1 0 1 1 1 2 1 1 1 nan nan nan nan 0 nan nan nan nan nan nan nan nan nan nan nan 1 1 1 2 5 5 7 7 9 11 13 13 14 16 20 20 26 31 31 26 12 11 11 10
nan nan nan nan nan nan nan nan nan nan nan nan nan nan nan 0 1 1 1 3 3 3 3 5 5 3 4 3 1 1 0 nan nan nan 1 1 3 3 1 1 1 1 3 4 4 1 nan 0 0 0 0 0 nan nan nan nan nan nan nan nan nan nan 0 1 1 2 1 3 4 4 5 5 6 6 8 9 14 14 16 22 22 25 14 10 10 13
nan nan nan nan nan nan nan nan nan nan nan nan nan nan nan 0 1 1 2 3 3 4 5 5 5 4 3 3 2 2 0 nan nan nan 3 2 4 4 3 1 1 1 3 3 3 2 1 1 1 2 1 0 0 0 nan nan nan nan nan nan nan nan nan 0 0 0 0 0 1 1 3 3 5 5 6 8 12 12 15 19 19 23 24 11 11 12
nan nan nan nan nan nan nan nan nan nan nan nan nan nan nan nan 1 1 3 5 5 5 5 6 6 5 4 3 2 2 nan nan 0 0 4 4 5 5 3 1 1 1 1 1 1 1 0 0 0 1 1 0 0 0 nan nan nan nan nan nan nan nan nan nan nan nan nan 0 0 0 0 0 5 5 4 6 8 8 13 18 18 25 33 20 20 16
nan nan nan nan nan nan nan nan nan nan nan nan nan nan nan nan nan nan 1 3 3 5 5 6 6 4 4 1 2 2 nan nan 0 0 4 4 2 2 1 1 1 2 1 2 2 1 0 1 1 3 3 1 0 0 nan nan nan nan nan nan nan nan nan nan nan nan nan nan nan nan nan nan 0 0 1 4 8 8 14 19 19 26 33 38 38 32
nan nan nan nan nan nan nan nan nan nan nan nan nan nan nan nan nan nan 0 2 2 4 6 6 6 6 5 4 1 1 0 nan 0 0 4 4 3 3 3 3 3 1 0 1 1 2 1 2 2 5 5 2 0 0 nan nan nan nan nan nan nan nan nan 0 0 0 nan nan nan nan nan 0 1 1 2 9 14 14 16 21 21 26 29 35 35 40
nan nan nan nan nan nan nan nan nan nan nan nan nan nan nan nan nan nan nan 3 3 4 4 7 7 6 10 5 4 4 2 0 2 2 5 5 3 3 3 3 3 3 0 1 1 0 0 1 1 4 3 2 0 0 nan nan nan nan nan nan nan nan 0 0 0 1 1 1 1 1 2 2 3 3 6 13 14 14 20 23 23 21 22 26 26 31
nan nan nan nan nan nan nan nan nan nan nan nan nan nan nan nan 0 0 0 2 2 6 4 2 2 2 9 10 7 7 6 3 3 3 5 6 2 2 3 4 4 5 2 1 1 0 0 1 1 2 1 0 1 1 1 0 0 nan nan nan nan 0 nan 0 0 1 2 3 4 4 5 3 3 3 5 6 6 6 7 7 7 15 19 20 20 26
nan nan nan nan nan nan nan nan nan nan nan nan nan nan nan nan 1 1 0 0 0 1 2 1 1 1 5 5 9 9 8 4 0 0 2 5 4 4 2 3 3 2 2 1 1 1 1 0 0 1 2 1 1 1 0 0 0 0 0 nan nan nan nan 0 0 1 2 2 4 4 3 3 3 3 2 3 4 4 5 5 5 10 10 9 9 18
nan nan nan nan nan nan nan nan nan nan nan nan nan nan nan 0 nan nan nan nan nan 0 1 2 2 2 4 5 5 5 5 4 5 5 3 2 6 6 4 1 1 2 2 1 1 1 0 0 0 2 2 1 1 1 1 0 0 1 2 1 1 0 nan nan nan 0 0 1 2 2 2 2 3 3 2 3 4 4 4 3 3 5 9 6 6 6
nan nan nan nan nan nan nan nan nan nan nan nan 0 0 0 1 1 1 nan 0 0 1 0 2 2 2 4 5 3 3 3 4 5 5 2 nan 3 3 5 2 2 1 1 1 1 0 1 0 0 2 2 1 2 2 3 2 2 4 7 2 2 1 0 1 1 1 1 1 2 2 4 4 4 4 3 4 3 3 3 3 3 5 7 4 4 3
0 0 nan nan nan nan nan nan nan nan nan 0 1 1 1 1 1 1 1 2 2 2 2 3 3 4 4 2 2 2 4 3 3 3 1 nan nan nan 5 5 5 2 1 1 1 2 3 2 2 2 2 0 0 0 3 2 2 4 5 2 2 2 2 2 2 0 1 2 3 3 5 3 2 2 4 2 1 1 3 3 3 8 10 4 4 2
0 nan nan nan nan nan nan 0 1 1 1 1 0 0 1 1 2 2 3 3 3 3 4 4 4 4 3 2 1 1 3 5 5 5 6 2 0 0 6 6 6 3 1 1 1 3 3 4 4 1 2 0 1 1 2 3 3 3 3 3 3 2 0 0 0 nan 1 2 2 2 1 2 2 2 2 2 1 1 2 5 5 13 13 5 5 5
0 nan nan nan nan 0 1 1 0 0 0 0 0 0 1 1 3 3 4 4 4 5 5 4 4 4 4 3 1 1 1 4 5 5 6 7 8 8 9 11 11 7 2 1 1 1 3 3 3 1 1 nan 2 2 3 3 3 3 2 2 2 1 0 0 0 0 1 1 1 1 2 1 3 3 4 4 2 2 3 3 3 4 8 6 6 4
nan nan 0 0 0 1 0 0 0 0 0 0 0 0 1 2 4 4 4 5 5 5 4 5 5 5 2 2 1 1 1 0 2 2 4 5 9 9 11 10 10 7 5 1 1 0 2 1 1 1 1 0 0 0 2 3 3 2 3 2 2 2 2 1 1 1 1 0 1 1 1 2 1 1 3 3 3 3 2 3 3 1 4 5 5 4
1 1 1 1 1 1 2 1 0 0 0 1 1 1 1 2 3 3 5 4 4 4 4 5 5 4 2 1 1 1 1 0 0 0 1 3 5 5 8 8 8 5 3 2 2 1 1 0 0 1 0 0 0 0 2 1 1 1 1 2 2 1 2 1 1 1 1 0 0 0 1 2 1 1 2 3 3 3 4 2 2 1 2 2 2 5
1 1 1 1 1 1 1 1 1 1 1 1 0 0 1 2 2 2 4 5 5 5 5 6 6 4 2 1 1 1 1 1 0 0 0 1 2 2 4 5 5 7 4 4 4 5 4 0 0 0 nan 0 2 2 1 1 1 0 0 1 1 1 2 1 1 1 1 0 0 0 0 1 nan nan 2 2 3 3 2 3 3 2 3 5 5 4
3 3 2 2 2 2 1 1 1 1 1 1 0 0 1 1 2 2 4 5 5 6 6 3 3 3 2 2 1 1 1 1 0 0 1 1 2 2 3 3 3 5 5 5 5 7 5 6 6 5 0 0 0 0 1 1 1 1 1 1 1 1 2 2 2 1 1 0 nan nan nan 0 nan nan 0 1 1 1 2 4 4 5 3 5 5 6
5 4 3 3 3 2 2 1 1 1 1 1 1 1 1 2 6 6 2 3 3 4 3 3 3 3 2 1 1 1 1 1 1 1 1 1 1 1 2 4 4 5 5 6 6 6 6 8 8 8 2 1 2 2 1 0 0 0 1 1 1 1 1 2 2 1 1 nan nan nan nan nan nan nan nan 2 3 3 4 4 4 5 5 3 3 3
1 2 2 2 2 2 2 2 2 2 2 1 2 2 1 2 2 2 2 2 2 2 3 3 3 4 2 1 1 1 1 1 1 1 1 1 2 2 2 4 4 5 5 6 6 6 5 6 6 8 9 4 1 1 2 0 0 0 1 1 1 1 1 1 1 3 3 2 1 1 1 1 2 2 nan 2 8 8 6 5 5 4 3 2 2 3
1 1 0 2 2 3 3 2 3 3 3 2 2 2 3 2 2 2 2 2 2 2 1 2 2 3 2 1 1 1 1 1 1 1 1 1 2 2 2 4 4 4 4 5 5 4 4 2 2 2 5 9 4 4 nan 0 0 1 2 3 3 2 4 2 2 4 5 4 3 3 4 5 2 2 nan 0 5 5 5 2 2 3 2 1 1 3
CIN
nan nan nan nan nan nan nan nan nan nan nan nan nan nan nan nan nan nan nan nan nan nan nan nan nan nan nan nan nan nan nan nan nan nan -0 -0 -0 -0 -0 -0 -0 -0 -0 -0 -0 -0 -0 -0 -0 -0 -0 -0 -0 -0 -0 -0 -0 -0 -0 -0 -0 -0 -0 -0 -0 -0 -0 -0 -0 -0 -0 -0 -0 -0 -0 -0 -0 -0 -0 -0 -0 -0 -0 -0 -0 -0
nan nan nan nan nan nan nan nan nan nan nan nan nan nan nan nan nan nan nan nan nan nan nan nan nan nan nan nan nan nan nan nan nan nan -0 -0 -0 -0 -0 -0 -0 -0 -0 -0 -0 -0 -0 -0 -0 -0 -0 -0 -0 -0 -0 -0 -0 -0 -0 -0 -0 -0 -0 -0 -0 -0 -0 -0 -0 -0 -0 -0 -0 -0 -0 -0 -0 -0 -0 -0 -0 -0 -0 -0 -0 -0
nan nan nan nan nan nan nan nan nan nan nan nan nan nan nan nan nan nan nan nan nan nan nan nan nan nan nan nan nan nan nan nan nan nan -0 -0 -0 -0 -0 -0 -0 -0 -0 -0 -0 -0 -0 -0 -0 -0 -0 -0 -0 -0 -0 -0 -0 -0 -0 -0 -0 -0 -0 -0 -0 -0 -0 -0 -0 -0 -0 -0 -0 -0 -0 -0 -0 -0 -0 -0 -0 -0 -0 -0 -0 -0
nan nan nan nan nan nan nan nan nan nan nan nan nan nan nan nan nan nan nan nan nan nan nan nan nan nan nan nan nan nan nan nan nan nan -0 -0 -0 -0 -0 -0 -0 -0 -0 -0 -0 -0 -0 -0 -0 -0 -0 -0 -0 -0 -0 -0 -0 -0 -0 -0 -0 -0 -0 -0 -0 -0 -0 -0 -0 -0 -0 -0 -0 -0 -0 -0 -0 -0 -0 -0 -0 -0 -0 -0 -0 -0
nan nan nan nan nan nan nan nan nan nan nan nan nan nan nan nan nan nan nan nan nan nan nan nan nan nan nan nan nan nan nan nan nan nan -0 -0 -0 -0 -0 -0 -0 -0 -0 -0 -0 -0 -0 -0 -0 -0 -0 -0 -0 -0 -0 -0 -0 -0 -0 -0 -0 -0 -0 -0 -0 -0 -0 -0 -0 -0 -0 -0 -0 -0 -0 -0 -0 -0 -0 -0 -0 -0 -0 -0 -0 -0
nan nan nan nan nan nan nan nan nan nan nan nan nan nan nan nan nan nan nan nan nan nan nan nan nan nan nan nan nan nan nan nan nan nan nan -0 -0 -0 -0 -0 -0 -0 -0 -0 -0 -0 -0 -0 -0 -0 -0 -0 -0 -0 -0 -0 -0 -0 -0 -0 -0 -0 -0 -0 -0 -0 -0 -0 -0 -0 -0 -0 -0 -0 -0 -0 -0 -0 -0 -0 -0 -0 -0 -0 -0 -0
nan nan nan nan nan nan nan nan nan nan nan nan nan nan nan nan nan nan nan nan nan nan nan nan nan nan nan nan nan nan nan nan nan nan nan nan nan nan -0 -0 -0 -0 -0 -0 -0 -0 -0 -0 -0 -0 -0 -0 -0 -0 -0 -0 -0 -0 -0 -0 -0 -0 -0 -0 -0 -0 -0 -0 -0 -0 -0 -0 -0 -0 -0 -0 -0 -0 -0 -0 -0 -0 -0 -0 -0 -0
nan nan nan nan nan nan nan nan nan nan nan nan nan nan nan nan nan nan nan -0 -0 nan nan nan nan nan nan nan nan nan nan nan nan nan nan nan nan nan nan -0 -0 -0 -0 -0 -0 -0 -0 -0 -0 -0 -0 -0 -0 -0 -0 -0 -0 -0 -0 -0 -0 -0 -0 -0 -0 -0 -0 -0 -0 -0 -0 -0 -0 -0 -0 -0 -0 -0 -0 -0 -0 -0 -0 -0 -0 -0
nan nan nan nan nan nan nan nan nan nan nan nan nan nan nan nan nan nan nan nan nan nan nan nan nan nan nan nan nan nan nan nan nan nan nan nan nan nan nan -0 -0 -0 -0 -0 -0 -0 -0 -0 -0 -0 -0 -0 -0 -0 -0 -0 -0 -0 -0 -0 -0 -0 -0 -0 -0 -0 -0 -0 -0 -0 -0 -0 -0 -0 -0 -0 -0 -0 -0 -0 -0 -0 -0 -0 -0 -0
nan nan nan nan nan nan nan nan nan nan nan nan nan nan nan nan nan nan nan nan nan nan nan nan nan nan nan nan nan nan nan nan -0 -0 -0 nan -0 -0 -0 nan nan nan -0 -0 -0 -0 -0 -0 -0 -0 -0 -0 -0 -0 -0 -0 -0 -0 -0 -0 -0 -0 -0 -0 -0 -0 -0 -0 -0 -0 -0 -0 -0 -0 -0 -0 -0 -0 -0 -0 -0 -0 -0 -0 -0 -0
nan nan nan nan nan nan nan nan nan nan nan nan nan nan nan nan nan nan nan nan nan nan nan nan nan nan nan nan nan nan nan nan nan nan nan -0 -0 -0 -0 -0 -0 -0 -0 -0 -0 -0 -0 -0 -0 -0 -0 -0 -0 -0 -0 -0 -0 -0 -0 -0 -0 -0 -0 -0 -0 -0 -0 -0 -0 -0 -0 -0 -0 -0 -0 -0 -0 -0 -0 -0 -0 -0 -0 -0 -0 -0
nan nan nan nan nan nan nan nan nan nan nan nan nan nan nan nan -0 -0 nan nan nan nan nan nan nan nan nan nan nan nan nan nan nan nan nan nan nan nan nan nan nan nan nan -0 -0 nan nan -0 -0 -0 nan nan nan nan -0 nan nan -0 -0 -0 -0 -0 -0 -0 -0 -0 -0 -0 -0 -0 -0 -0 -0 -0 -0 -0 -0 -0 -0 -0 -0 -0 -0 -0 -0 -0
nan nan nan nan nan nan nan nan nan nan nan nan nan nan nan nan nan nan nan nan nan nan nan nan nan nan nan nan nan nan nan nan nan nan nan nan nan nan nan nan nan nan nan nan nan nan nan nan nan nan nan nan nan nan nan nan nan -0 -0 -0 -0 -0 -0 -0 -0 -0 -0 -0 -0 -0 -0 -0 -0 -0 -0 -0 -0 -0 -0 -0 -0 -0 -0 -0 -0 -0
nan nan nan nan nan nan nan nan nan nan nan nan nan nan nan nan nan nan nan nan nan nan -0 -0 -0 -0 nan nan nan nan nan nan nan nan nan nan nan nan nan nan nan nan nan nan nan nan nan nan nan nan nan nan nan nan nan nan nan -0 -0 -0 -0 -0 -0 -0 -0 -0 -0 -0 -0 -0 -0 -0 -0 -0 -0 -0 -0 -0 -0 -0 -0 -0 -0 -0 -0 -0
nan -0 nan nan nan nan nan nan nan nan nan nan nan nan nan nan nan nan nan nan nan -0 -0 -0 -0 -0 nan nan nan nan -0 -0 nan nan nan nan -0 -0 nan nan nan nan nan nan nan nan nan nan nan nan nan nan nan nan nan nan nan -0 -0 -0 -0 -0 -0 -0 -0 -0 -0 -0 -0 -0 -0 -0 -0 -0 -0 -0 -0 -0 -0 -0 -0 -0 -0 -0 -0 -0
-0 nan nan nan nan nan nan nan nan nan -0 -0 -0 -0 nan nan nan nan nan -0 -0 -0 -0 -0 -0 -0 nan nan nan nan nan -0 -0 -0 -0 nan nan nan nan nan nan nan nan nan nan nan nan nan nan nan nan nan nan nan nan -0 -0 -0 -0 -0 -0 -0 -0 -0 -0 -0 -0 -0 -0 -0 -0 -0 -0 -0 -0 -0 -0 -0 -0 -0 -0 -0 -0 -0 -0 -0
-0 -0 nan nan nan nan nan -0 -0 -0 -0 -0 -0 -0 nan nan -0 -0 -0 -0 -0 -0 -0 -0 -0 -0 -0 -0 nan nan -0 -0 -0 -0 -0 -0 nan nan nan nan nan nan nan nan nan nan nan nan nan nan nan nan nan nan nan -0 -0 -0 -0 -0 -0 -0 -0 -0 -0 -0 -0 -0 -0 -0 -0 -0 -0 -0 -0 -0 -0 -0 -0 -0 -0 -0 -0 -0 -0 -0
-0 -0 -0 -0 -0 -0 -0 -0 -0 -0 -0 -0 -0 -0 -0 -0 -0 -0 -0 -0 -0 -0 -0 -0 -0 -0 -0 -0 nan nan -0 -0 -0 -0 -0 -0 nan nan nan nan nan nan nan nan nan nan nan nan nan nan nan nan nan nan -0 -0 -0 -0 -0 -0 -0 -0 -0 -0 -0 -0 -0 -0 -0 -0 -0 -0 -0 -0 -0 -0 -0 -0 -0 -0 -0 -0 -0 -0 -0 -0
-0 -0 -0 -0 -0 -0 -0 -0 -0 -0 nan nan -0 -0 -0 -0 -0 -0 -0 -0 -0 -0 -0 -0 -0 -0 -0 -0 -0 -0 -0 -0 -0 -0 -0 -0 nan nan nan nan nan nan nan nan nan nan nan nan nan nan nan nan nan nan -0 -0 -0 -0 -0 -0 -0 -0 -0 -0 -0 -0 -0 -0 -0 -0 -0 -0 -0 -0 -0 -0 -0 -0 -0 -0 -0 -0 -0 -0 -0 -0
-0 -0 -0 -0 -0 -0 -0 -0 -0 -0 -0 -0 -0 -0 -0 -0 -0 -0 -0 -0 -0 -0 -0 -0 -0 -0 -0 -0 -0 -0 -0 -0 -0 -0 -0 -0 nan nan nan nan nan nan nan nan nan nan nan nan nan nan nan nan -0 -0 -0 -0 -0 -0 -0 -0 -0 -0 -0 -0 -0 -0 -0 -0 -0 -0 -0 -0 -0 -0 -0 -0 -0 -0 -0 -0 -0 -0 -0 -0 -0 -0
-0 -0 -0 -0 -0 -0 -0 -0 -0 -0 -0 -0 -0 -0 -0 -0 -0 -0 -0 -0 -0 -0 -0 -0 -0 -0 -0 -0 -0 -0 -0 -0 -0 -0 -0 -0 nan nan nan nan nan nan nan nan nan nan nan nan nan nan nan nan -0 -0 -0 -0 -0 -0 -0 -0 -0 -0 -0 -0 -0 -0 -0 -0 -0 -0 -0 -0 -0 -0 -0 -0 -0 -0 -0 -0 -0 -0 -0 -0 -0 -0
-0 -0 -0 -0 -0 -0 -0 -0 -0 -0 -0 -0 -0 -0 -0 -0 -0 -0 -0 -0 -0 -0 -0 -0 -0 -0 -0 -0 -0 -0 -0 -0 -0 -0 -0 -0 nan nan nan nan nan nan nan nan nan nan nan nan nan nan nan nan -0 -0 -0 -0 -0 -0 -0 -0 -0 -0 -0 -0 -0 -0 -0 -0 -0 -0 -0 -0 -0 -0 -0 -0 -0 -0 -0 -0 -0 -0 -0 -0 -0 -0
-0 -0 -0 -0 -0 -0 -0 -0 -0 -0 -0 -0 -0 -0 -0 -0 -0 -0 -0 -0 -0 -0 -0 -0 -0 -0 -0 -0 -0 -0 -0 -0 -0 -0 -0 -0 nan nan nan nan nan nan nan nan nan nan nan nan nan nan nan -0 -0 -0 -0 -0 -0 -0 -0 -0 -0 -0 -0 -0 -0 -0 -0 -0 -0 -0 -0 -0 -0 -0 -0 -0 -0 -0 -0 -0 -0 -0 -0 -0 -0 -0
-0 -0 -0 -0 -0 -0 -0 -0 -0 -0 -0 -0 -0 -0 -17 -2 -0 -0 -0 -0 -0 -0 -0 -0 -0 -0 -0 -0 -0 -0 -0 -0 -0 -0 -0 -0 nan nan nan nan nan nan nan nan nan nan nan nan nan nan nan nan -0 -0 -0 -0 -0 -0 -0 -0 -0 -0 -0 -0 -0 -0 -0 -0 -0 -0 -0 -0 -0 -0 -0 -0 -0 -0 -0 -0 -0 -0 -0 -0 -0 -0
-0 -0 -0 -0 -0 -0 -0 -0 -0 -0 -0 -0 -0 -0 -0 -1 -0 -0 -0 -0 -0 -0 -0 -0 -0 -0 -0 -0 nan nan -0 -0 -0 -0 -0 -0 nan nan nan nan nan nan nan nan nan nan nan nan nan nan nan nan nan nan -0 -0 -0 -0 -0 -0 -0 -0 -0 -0 -0 -0 -0 -0 -0 -0 -0 -0 -0 -0 -0 -0 -0 -0 -0 -0 -0 -0 -0 -0 -0 -0
-0 -0 -0 -0 -0 -0 -0 -0 -0 -0 -0 -0 -0 -0 -0 -0 -0 -0 -0 -0 -0 -0 -0 -0 -0 -0 -0 -0 nan nan nan -0 -0 -0 -0 -0 nan nan nan nan nan nan nan nan nan nan nan nan nan nan nan nan nan nan -0 -0 -0 -0 -0 -0 -0 -0 -0 -0 -0 -0 -0 -0 -0 -0 -0 -0 -0 -0 -0 -0 -0 -0 -0 -0 -0 -0 -0 -0 -0 -0
-0 -0 -0 -0 -0 -0 -0 -0 -0 -0 -0 -0 -0 -0 -0 -0 -0 -0 -0 -0 -0 -0 -0 -0 -0 -0 -0 -0 nan nan nan -0 -0 -0 -0 nan nan nan nan nan nan nan nan nan nan nan nan nan nan nan nan nan nan nan -0 -0 -0 -0 -0 -0 -0 -0 -0 -0 -0 -0 -0 -0 -0 -0 -0 -0 -0 -0 -0 -0 -0 -0 -0 -0 -0 -0 -0 -0 -0 -0
-0 -0 -0 -0 -0 -0 -0 -0 -0 -0 -0 -0 -0 -0 -0 -0 -0 -0 -0 -0 -0 -0 -0 -0 -0 -0 -0 -0 nan nan nan nan nan nan nan -0 -0 -0 nan nan nan -0 -0 nan nan -0 -0 -0 -0 nan nan nan nan nan -0 -0 -0 -0 -0 -0 -0 -0 -0 -0 -0 -0 -0 -0 -0 -0 -0 -0 -0 -0 -0 -0 -0 -0 -0 -0 -0 -0 -0 -0 -0 -0
-0 -0 -0 -0 -0 -0 -0 -0 -0 -0 -0 -0 -0 -0 -0 -0 -0 -0 -0 -0 -0 -0 -0 -0 -0 -0 -0 -0 nan nan nan nan nan nan nan -0 -0 -0 -0 -0 -0 -0 -0 -0 -0 -0 -0 -0 -0 nan nan nan nan nan nan -0 -0 -0 -0 -0 -0 -0 -0 -0 -0 -0 -0 -0 -0 -0 -0 -0 -0 -0 -0 -0 -0 -0 -0 -0 -0 -0 -0 -0 -0 -0
-0 -0 -0 -0 -0 -0 -0 -0 -0 -0 -0 -0 -0 -0 -0 -0 -0 -0 -0 -0 -0 -0 -0 -0 -0 -0 -0 -0 -0 -0 nan nan nan nan -0 -0 -0 -0 -0 -0 -0 -0 -0 -0 -0 -0 -0 nan nan nan nan nan nan nan nan nan nan nan nan -0 -0 -0 -0 -0 -0 -0 -0 -0 -0 -0 -0 -0 -0 -0 -0 -0 -0 -0 -0 -0 -0 -0 -0 -0 -0 -0
-0 -0 -0 -0 -0 -0 -0 nan nan nan -0 -0 -0 -0 -0 -0 -0 -0 -0 -0 -0 -0 -0 -0 -0 -0 -0 -0 -0 -0 nan nan -0 -0 -0 -0 -0 -0 -0 -0 -0 -0 -0 -0 -0 -0 nan nan nan nan -0 nan nan nan nan nan nan nan nan nan nan nan -0 -0 -0 -0 -0 -0 -0 -0 -0 -0 -0 -0 -0 -0 -0 -0 -0 -0 -0 -0 -0 -0 -0 -0
nan nan nan nan nan nan nan nan nan nan nan nan nan nan nan -0 -0 -0 -0 -0 -0 -0 -0 -0 -0 -0 -0 -0 -0 -0 -0 nan nan nan -0 -0 -0 -0 -0 -0 -0 -0 -0 -0 -0 -0 nan -0 -0 -0 -0 -0 nan nan nan nan nan nan nan nan nan nan -0 -0 -0 -0 -0 -0 -0 -0 -0 -0 -0 -0 -0 -0 -0 -0 -0 -0 -0 -0 -0 -0 -0 -0
nan nan nan nan nan nan nan nan nan nan nan nan nan nan nan -0 -0 -0 -0 -0 -0 -0 -0 -0 -0 -0 -0 -0 -0 -0 -0 nan nan nan -0 -0 -0 -0 -0 -0 -0 -0 -0 -0 -0 -0 -0 -0 -0 -0 -0 -0 -0 -0 nan nan nan nan nan nan nan nan nan -0 -0 -0 -0 -0 -0 -0 -0 -0 -0 -0 -0 -0 -0 -0 -0 -0 -0 -0 -0 -0 -0 -0
nan nan nan nan nan nan nan nan nan nan nan nan nan nan nan nan -0 -0 -0 -0 -0 -0 -0 -0 -0 -0 -0 -0 -0 -0 nan nan -0 -0 -0 -0 -0 -0 -0 -0 -0 -0 -0 -0 -0 -0 -0 -0 -0 -0 -0 -0 -0 -0 nan nan nan nan nan nan nan nan nan nan nan nan nan -0 -0 -0 -0 -0 -0 -0 -0 -0 -0 -0 -0 -0 -0 -0 -0 -0 -0 -0
nan nan nan nan nan nan nan nan nan nan nan nan nan nan nan nan nan nan -0 -0 -0 -0 -0 -0 -0 -0 -0 -0 -0 -0 nan nan -0 -0 -0 -0 -0 -0 -0 -0 -0 -0 -0 -0 -0 -0 -0 -0 -0 -0 -0 -0 -0 -0 nan nan nan nan nan nan nan nan nan nan nan nan nan nan nan nan nan nan -0 -0 -0 -0 -0 -0 -0 -0 -0 -0 -0 -0 -0 -0
nan nan nan nan nan nan nan nan nan nan nan nan nan nan nan nan nan nan -0 -0 -0 -0 -0 -0 -0 -0 -0 -0 -0 -0 -0 nan -0 -0 -0 -0 -0 -0 -0 -0 -0 -0 -0 -0 -0 -0 -0 -0 -0 -0 -0 -0 -0 -0 nan nan nan nan nan nan nan nan nan -0 -0 -0 nan nan nan nan nan -0 -0 -0 -0 -0 -0 -0 -0 -0 -0 -0 -0 -0 -0 -0
nan nan nan nan nan nan nan nan nan nan nan nan nan nan nan nan nan nan nan -0 -0 -0 -0 -0 -0 -0 -0 -0 -0 -0 -0 -0 -0 -0 -0 -0 -0 -0 -0 -0 -0 -0 -0 -0 -0 -0 -0 -0 -0 -0 -0 -0 -0 -0 nan nan nan nan nan nan nan nan -0 -0 -0 -0 -0 -0 -0 -0 -0 -0 -0 -0 -0 -0 -0 -0 -0 -0 -0 -0 -0 -0 -0 -0
nan nan nan nan nan nan nan nan nan nan nan nan nan nan nan nan -0 -0 -0 -0 -0 -0 -0 -0 -0 -0 -0 -0 -2 -2 -0 -0 -0 -0 -0 -0 -0 -0 -0 -0 -0 -0 -0 -0 -0 -0 -0 -0 -0 -0 -0 -0 -0 -0 -0 -0 -0 nan nan nan nan -0 nan -0 -0 -0 -0 -0 -0 -0 -0 -0 -0 -0 -0 -0 -0 -0 -0 -0 -0 -0 -0 -0 -0 -0
nan nan nan nan nan nan nan nan nan nan nan nan nan nan nan nan -0 -0 -0 -0 -0 -0 -0 -0 -0 -0 -1 -5 -0 -0 -0 -2 -9 -9 -7 -2 -0 -0 -0 -0 -0 -0 -0 -0 -0 -0 -0 -0 -0 -0 -0 -0 -0 -0 -0 -0 -0 -0 -0 nan nan nan nan -0 -0 -0 -0 -0 -0 -0 -0 -0 -0 -0 -0 -0 -0 -0 -0 -0 -0 -0 -0 -0 -0 -0
nan nan nan nan nan nan nan nan nan nan nan nan nan nan nan -0 nan nan nan nan nan -0 -0 -0 -0 -0 -0 -0 -0 -0 -0 -7 -1 -1 -4 -4 -0 -0 -0 -0 -0 -0 -0 -0 -0 -0 -0 -0 -0 -0 -0 -0 -0 -0 -0 -0 -0 -0 -0 -0 -0 -0 nan nan nan -0 -0 -0 -0 -0 -0 -0 -0 -0 -0 -0 -0 -0 -0 -0 -0 -0 -0 -0 -0 -0
nan nan nan nan nan nan nan nan nan nan nan nan -0 -0 -0 -0 -0 -0 nan -0 -0 -0 -0 -0 -0 -0 -0 -0 -0 -0 -0 -3 -0 -0 -6 nan -1 -1 -0 -0 -0 -0 -0 -0 -0 -0 -0 -0 -0 -0 -0 -0 -0 -0 -0 -0 -0 -0 -0 -0 -0 -0 -0 -0 -0 -0 -0 -0 -0 -0 -0 -0 -0 -0 -0 -0 -0 -0 -0 -0 -0 -0 -0 -0 -0 -0
-0 -0 nan nan nan nan nan nan nan nan nan -0 -0 -0 -0 -0 -0 -0 -0 -0 -0 -0 -0 -0 -0 -0 -0 -0 -0 -0 -0 -0 -3 -3 -8 nan nan nan -0 -0 -0 -0 -0 -0 -0 -0 -0 -0 -0 -0 -0 -0 -0 -0 -0 -0 -0 -0 -0 -0 -0 -0 -0 -0 -0 -0 -0 -0 -0 -0 -0 -0 -0 -0 -0 -0 -0 -0 -0 -1 -1 -0 -0 -0 -0 -0
-0 nan nan nan nan nan nan -0 -0 -0 -0 -0 -0 -0 -0 -0 -0 -0 -0 -0 -0 -0 -0 -0 -0 -0 -0 -0 -0 -0 -0 -0 -0 -0 -0 -12 -11 -11 -0 -0 -0 -0 -0 -0 -0 -0 -0 -0 -0 -0 -0 -0 -0 -0 -0 -0 -0 -0 -0 -0 -0 -0 -0 -0 -0 nan -0 -0 -0 -0 -0 -0 -0 -0 -0 -0 -0 -0 -0 -0 -0 -0 -0 -0 -0 -0
-0 nan nan nan nan -0 -0 -0 -0 -0 -0 -0 -0 -0 -0 -0 -0 -0 -0 -0 -0 -0 -0 -0 -0 -0 -0 -0 -0 -0 -0 -0 -0 -0 -0 -0 -7 -7 -0 -0 -0 -0 -0 -0 -0 -0 -0 -0 -0 -0 -0 nan -0 -0 -0 -0 -0 -0 -0 -0 -0 -0 -0 -0 -0 -0 -0 -0 -0 -0 -0 -0 -0 -0 -0 -0 -0 -0 -0 -0 -0 -0 -0 -0 -0 -0
nan nan -0 -0 -0 -0 -0 -0 -0 -0 -0 -0 -0 -0 -0 -0 -0 -0 -0 -0 -0 -0 -0 -0 -0 -0 -0 -0 -0 -0 -0 -0 -0 -0 -0 -0 -1 -1 -1 -0 -0 -0 -0 -0 -0 -0 -0 -0 -0 -0 -0 -0 -0 -0 -0 -0 -0 -0 -0 -0 -0 -0 -0 -0 -0 -0 -0 -0 -0 -0 -0 -0 -2 -2 -0 -0 -0 -0 -0 -0 -0 -0 -0 -0 -0 -0
-0 -0 -0 -0 -0 -0 -0 -0 -0 -0 -0 -0 -0 -0 -0 -0 -0 -0 -0 -0 -0 -0 -0 -0 -0 -0 -0 -0 -0 -0 -0 -0 -0 -0 -0 -0 -0 -0 -0 -0 -0 -0 -0 -0 -0 -0 -0 -0 -0 -0 -0 -0 -0 -0 -0 -0 -0 -0 -0 -0 -0 -0 -0 -0 -0 -0 -0 -0 -0 -0 -0 -2 -0 -0 -0 -0 -0 -0 -0 -0 -0 -0 -0 -0 -0 -0
-0 -0 -0 -0 -0 -0 -0 -0 -0 -0 -0 -0 -0 -0 -0 -0 -0 -0 -0 -0 -0 -0 -0 -0 -0 -0 -0 -0 -0 -0 -0 -0 -0 -0 -0 -0 -0 -0 -0 -0 -0 -0 -0 -0 -0 -0 -0 -2 -2 -1 nan -0 -0 -0 -0 -0 -0 -0 -0 -0 -0 -0 -0 -0 -0 -0 -0 -0 -0 -0 -0 -6 nan nan -0 -0 -0 -0 -0 -0 -0 -0 -0 -0 -0 -0
-0 -0 -0 -0 -0 -0 -0 -0 -0 -0 -0 -0 -0 -0 -0 -0 -0 -0 -0 -0 -0 -0 -0 -0 -0 -0 -0 -0 -0 -0 -0 -0 -0 -0 -0 -0 -0 -0 -0 -0 -0 -0 -0 -0 -0 -0 -0 -4 -4 -4 -1 -0 -0 -0 -0 -0 -0 -0 -0 -0 -0 -0 -0 -0 -0 -0 -0 -2 nan nan nan -5 nan nan -0 -0 -0 -0 -0 -0 -0 -0 -0 -0 -0 -0
-0 -0 -0 -0 -0 -0 -0 -0 -0 -0 -0 -0 -0 -0 -0 -0 -0 -0 -0 -0 -0 -0 -0 -0 -0 -0 -0 -0 -0 -0 -0 -0 -0 -0 -0 -0 -0 -0 -0 -0 -0 -0 -0 -0 -0 -0 -0 -4 -4 -0 -0 -0 -0 -0 -0 -0 -0 -0 -0 -0 -0 -0 -0 -0 -0 -0 -0 nan nan nan nan nan nan nan nan -0 -0 -0 -0 -0 -0 -0 -0 -2 -2 -0
-0 -0 -0 -0 -0 -0 -0 -0 -0 -0 -0 -0 -0 -0 -0 -0 -0 -0 -0 -0 -0 -0 -0 -0 -0 -0 -0 -0 -0 -0 -0 -0 -0 -0 -0 -0 -0 -0 -0 -0 -0 -0 -0 -0 -0 -0 -0 -2 -2 -0 -0 -0 -0 -0 -0 -0 -0 -0 -0 -0 -0 -0 -0 -0 -0 -0 -1 -7 -27 -27 -23 -9 -3 -3 nan -0 -0 -0 -0 -0 -0 -0 -0 -3 -3 -3
-0 -0 -0 -0 -0 -0 -0 -0 -0 -0 -0 -0 -0 -0 -0 -0 -0 -0 -0 -0 -0 -0 -0 -0 -0 -0 -0 -0 -0 -0 -0 -0 -0 -0 -0 -0 -0 -0 -0 -0 -0 -0 -0 -0 -0 -0 -0 -0 -0 -0 -0 -0 -2 -2 nan -0 -0 -0 -0 -0 -0 -0 -0 -0 -0 -0 -0 -0 -12 -12 -15 -8 -2 -2 nan -1 -0 -0 -0 -0 -0 -0 -0 -2 -2 -2
Wind_Speed
2 2 2 3 3 3 4 5 5 5 5 5 5 5 5 6 6 7 8 8 8 9 8 8 8 8 9 10 11 12 13 13 14 14 15 15 16 16 17 17 17 18 18 18 18 18 18 18 18 18 18 18 18 18 19 19 19 19 19 19 20 20 20 20 21 21 21 21 21 22 22 22 22 23 23 23 23 24 24 24 24 24 24 24 24 24
3 3 3 3 3 3 3 5 5 5 5 5 6 6 6 7 7 6 7 8 8 8 8 8 8 9 9 10 11 12 13 13 14 14 15 16 16 17 17 18 18 18 18 18 18 18 18 18 18 18 18 18 18 18 18 18 19 19 19 19 20 20 20 20 21 21 21 21 22 22 22 22 23 23 23 23 24 24 24 24 25 25 25 25 25 25
2 2 2 3 3 3 3 4 4 5 5 6 6 7 8 8 7 6 6 6 7 7 7 7 8 8 9 9 11 12 12 13 14 15 15 16 17 17 18 18 18 18 18 18 18 18 17 17 17 18 18 18 18 18 18 18 19 19 19 19 20 20 20 21 21 21 21 21 22 22 22 22 22 23 23 23 24 24 24 24 25 25 25 25 25 25
2 2 2 2 2 3 3 3 4 4 5 6 7 8 8 8 7 6 6 6 6 7 7 8 8 8 8 8 9 11 12 13 14 15 16 16 17 17 18 18 18 18 17 17 17 17 17 17 17 17 18 18 18 18 18 19 19 19 19 20 20 20 20 21 21 21 21 21 22 22 22 22 22 23 23 23 24 24 24 24 24 25 25 25 25 25
2 2 2 2 2 2 3 3 4 4 5 5 6 7 7 6 6 6 6 6 7 7 6 7 8 8 7 7 8 10 12 14 14 15 16 16 17 17 17 17 17 17 17 17 17 17 17 17 17 18 18 18 18 19 19 19 19 20 20 20 20 21 21 21 21 21 21 21 21 22 22 22 22 22 23 23 23 24 24 24 24 24 24 25 25 25
3 2 2 2 2 2 3 3 3 4 4 5 5 6 6 5 5 5 6 6 6 6 6 6 7 7 8 8 9 11 12 14 14 15 16 16 16 16 16 16 16 16 16 17 17 17 17 18 18 18 18 19 19 19 19 20 20 20 20 21 21 21 21 21 21 21 21 21 21 21 21 22 22 22 23 23 23 23 24 24 24 24 24 25 25 25
2 2 1 2 2 2 3 3 3 3 3 4 4 5 5 5 5 6 6 6 6 6 6 6 6 7 8 8 9 10 11 12 13 14 14 15 15 15 15 15 15 16 16 17 17 17 18 18 18 19 19 19 19 20 20 20 21 21 21 21 21 21 21 21 21 21 21 21 21 21 21 22 22 22 22 22 23 23 23 23 24 24 24 24 25 25
3 2 1 2 2 2 3 3 3 3 3 4 4 4 4 4 5 5 6 6 6 6 5 6 6 6 7 7 8 9 9 9 10 10 11 12 13 13 14 14 15 16 16 17 17 18 18 19 19 19 20 20 20 20 21 21 21 21 21 21 21 21 21 21 21 21 21 21 21 21 21 21 22 22 22 22 22 23 23 23 23 24 24 24 24 25
3 3 2 3 3 3 3 3 3 3 3 4 4 4 5 5 5 4 5 5 5 5 5 5 6 6 6 7 7 8 8 8 8 8 9 9 10 11 12 13 14 15 16 17 18 18 19 19 19 19 20 20 20 20 21 21 21 21 21 21 21 21 21 21 21 21 21 21 21 21 21 21 22 22 22 22 22 22 22 23 23 23 24 24 24 25
3 3 3 3 3 3 3 3 3 3 3 4 4 4 5 5 5 5 5 4 4 4 4 5 6 6 6 6 7 7 8 8 9 10 11 10 11 12 12 12 13 14 16 16 17 18 18 19 19 19 19 20 20 20 20 20 20 20 20 20 20 20 20 20 20 20 20 21 21 21 21 21 22 22 22 22 22 22 22 22 23 23 24 24 24 25
3 3 3 3 3 3 3 3 3 3 4 4 4 4 4 4 4 5 5 5 4 4 4 5 5 6 6 6 7 7 7 7 8 9 10 11 12 12 12 12 12 13 15 15 16 17 17 18 18 18 19 19 19 19 19 19 19 19 19 19 19 19 19 20 20 20 20 21 21 21 21 21 22 22 22 22 22 22 23 23 23 23 24 24 24 25
3 3 3 3 3 2 2 3 3 3 4 4 4 4 4 3 3 4 5 5 5 5 5 5 5 6 6 7 7 6 7 7 6 6 7 7 8 9 9 9 10 11 12 13 14 15 16 16 17 17 17 18 18 18 18 18 18 18 18 18 18 19 19 19 20 20 20 21 21 21 21 22 22 22 22 22 23 23 23 23 23 24 24 24 24 25
3 2 2 2 3 3 3 3 3 3 3 3 3 4 4 3 3 3 4 5 5 6 6 6 5 6 6 7 6 6 6 6 6 6 6 6 6 6 6 7 7 8 9 9 10 10 13 14 15 15 16 16 17 17 17 17 17 17 17 18 18 19 19 19 20 20 21 21 21 22 22 22 22 22 23 23 23 23 24 24 24 24 24 24 24 25
3 3 3 3 3 3 3 3 3 3 3 3 3 4 4 4 4 4 4 5 5 5 6 6 6 6 6 6 6 6 6 6 6 6 6 5 5 6 6 7 7 7 8 8 8 9 10 11 12 12 14 15 15 16 15 16 16 17 17 18 19 19 20 20 21 21 21 22 22 22 22 22 23 23 23 23 23 24 24 24 24 24 24 24 24 25
3 3 3 4 3 3 3 3 3 3 3 3 4 4 4 4 4 4 4 5 5 5 6 7 7 6 5 5 5 6 6 6 5 5 6 6 6 6 7 7 8 8 8 8 8 9 10 10 9 10 11 13 14 14 14 15 16 18 18 19 20 20 21 21 21 22 22 22 22 22 23 23 23 23 23 23 24 24 24 24 24 24 24 24 24 25
3 3 4 4 4 3 3 3 3 4 4 4 4 4 5 4 4 4 4 5 5 5 5 6 6 6 5 5 5 5 6 5 5 5 6 6 6 6 8 8 8 8 8 8 8 8 8 9 9 10 10 13 14 16 17 17 18 19 20 20 21 21 22 22 22 22 22 23 23 23 23 23 23 23 23 24 24 24 24 24 24 24 24 24 24 25
3 4 4 4 4 4 3 3 3 4 4 4 4 4 4 4 4 4 4 4 4 4 4 5 5 5 4 4 4 5 6 5 5 5 7 7 7 7 8 8 8 8 8 8 8 8 8 8 8 9 10 12 15 17 18 19 20 20 21 21 22 22 22 22 22 23 23 23 23 23 23 23 23 24 24 24 24 24 24 24 24 24 24 24 24 25
3 3 4 4 4 4 4 4 4 4 4 4 4 4 4 4 4 4 4 4 5 5 5 4 4 4 4 4 4 4 5 6 6 6 7 7 8 7 7 8 8 8 9 9 8 8 8 8 8 9 11 15 17 19 20 21 21 21 22 22 22 22 22 23 23 23 23 23 23 23 24 24 24 24 24 24 24 24 24 24 24 24 24 24 24 25
3 3 3 4 4 3 4 4 3 3 3 3 3 4 4 4 5 5 5 5 6 6 6 5 5 5 5 5 5 5 6 6 6 6 7 8 8 7 7 7 8 8 8 9 8 8 8 8 10 12 15 17 19 20 21 21 21 22 22 22 23 23 23 23 23 23 23 23 24 24 24 24 24 24 24 24 24 24 24 24 24 24 24 24 24 25
4 3 3 4 4 4 4 3 3 3 3 3 4 4 5 5 5 6 6 6 6 6 5 6 6 6 5 6 6 6 6 7 6 6 7 8 8 8 7 7 8 8 8 8 8 8 8 8 10 12 15 17 18 20 21 21 22 22 23 23 23 23 24 24 24 24 24 24 24 24 24 24 24 24 24 24 24 24 24 24 24 24 25 25 25 25
5 4 4 3 3 3 3 3 3 4 4 4 5 6 6 6 6 6 6 5 5 5 5 5 6 6 5 6 6 7 7 7 6 6 5 6 6 7 6 6 7 8 8 8 8 8 8 8 9 10 12 16 18 20 21 22 22 23 23 24 24 24 24 24 24 24 24 24 24 24 24 24 24 24 24 24 24 24 24 24 24 25 25 25 25 25
4 4 4 4 4 4 4 4 5 5 5 6 6 6 6 6 6 6 5 5 5 5 5 6 6 6 6 7 8 8 8 7 6 5 4 5 6 7 6 6 7 7 8 8 8 8 8 9 9 10 12 16 19 21 22 22 23 23 24 24 24 24 24 24 24 24 24 24 24 24 24 24 24 24 24 24 24 24 24 24 24 25 25 25 25 25
5 5 5 5 5 5 5 5 5 6 6 6 7 6 5 5 5 5 5 5 5 6 6 6 6 7 7 8 8 8 7 7 6 5 4 6 7 7 5 5 6 7 8 7 8 8 8 9 9 10 13 17 19 21 22 23 23 23 24 24 24 24 24 24 24 24 24 24 24 24 24 24 24 24 24 24 24 24 24 24 24 25 25 25 25 25
5 5 6 5 5 5 5 5 5 5 5 6 6 5 4 4 4 4 4 5 5 6 6 7 7 8 8 8 8 7 7 6 5 4 4 5 6 6 5 5 6 7 8 7 8 8 9 9 9 9 11 15 18 20 22 22 23 23 23 23 24 24 24 24 24 24 24 24 24 24 24 24 24 24 24 24 24 24 24 25 25 25 25 25 25 25
5 5 5 5 6 6 6 6 6 6 6 5 5 4 4 5 5 6 6 6 6 6 6 7 7 7 7 7 7 6 5 5 4 4 3 4 5 6 5 5 6 7 7 7 8 8 9 9 9 9 10 13 16 19 21 22 22 23 23 23 23 23 23 24 24 24 24 24 24 24 24 24 24 24 24 24 24 24 24 24 25 25 25 25 25 25
7 7 7 8 9 10 11 11 11 10 10 8 7 6 6 6 7 7 7 7 7 6 7 7 7 7 6 5 5 5 4 4 4 3 3 4 5 5 5 5 6 7 7 8 8 8 9 9 10 10 10 11 14 17 19 21 21 22 22 22 22 23 23 23 24 24 24 24 24 24 24 24 24 24 24 24 24 24 24 24 24 25 25 25 25 25
9 10 11 11 12 12 12 12 13 13 13 12 11 9 8 7 7 7 7 7 6 6 6 7 7 7 6 6 5 5 4 3 3 3 4 4 5 5 5 5 6 7 8 8 7 8 9 10 10 10 10 10 11 14 17 19 20 20 21 21 22 22 23 23 23 24 24 24 24 24 24 24 24 24 24 24 24 24 24 24 24 24 24 24 22 21
8 8 8 9 10 11 11 12 13 13 13 14 14 13 10 8 7 7 8 7 6 6 6 6 7 6 6 5 5 5 5 4 4 4 4 4 4 5 5 5 6 6 7 7 7 8 10 10 10 10 10 10 10 11 13 16 17 18 19 20 21 22 22 23 23 23 23 23 23 23 23 23 24 24 24 24 24 24 24 24 24 24 22 19 16 13
6 6 7 8 9 10 12 12 13 13 14 14 14 13 10 8 7 7 7 6 6 6 6 6 6 6 6 6 6 5 5 5 5 5 4 4 4 4 5 5 5 6 6 6 6 7 7 8 8 9 9 9 9 9 10 12 14 15 17 19 20 21 21 21 22 22 22 22 23 23 23 23 23 24 24 24 24 24 24 24 24 21 17 14 12 11
5 5 6 8 9 10 10 10 10 11 12 13 13 12 10 7 7 7 6 6 5 6 6 6 6 6 5 5 5 5 4 4 3 3 3 3 3 4 4 5 6 6 5 5 5 6 6 6 6 7 8 9 9 9 9 10 10 11 12 15 16 17 19 19 20 21 21 22 22 23 23 23 23 23 23 23 23 23 24 24 22 18 12 11 10 10
6 6 6 7 7 7 7 7 7 8 9 10 10 9 8 7 6 6 5 5 5 5 6 6 6 6 5 5 4 4 3 3 2 2 2 3 3 4 5 6 6 6 5 4 4 5 6 5 5 6 7 8 9 9 9 9 10 10 10 11 12 13 15 17 18 19 20 20 21 22 22 22 22 22 23 23 23 23 23 23 21 17 11 10 9 9
7 6 6 6 6 6 5 5 6 6 6 6 6 6 6 6 5 5 5 5 5 5 5 6 6 6 6 5 5 4 4 3 4 4 4 3 4 4 5 5 6 6 5 5 5 5 6 5 5 6 7 8 8 9 9 10 10 9 10 10 10 11 14 15 16 16 16 18 19 20 20 21 21 21 22 22 22 22 22 23 20 17 11 10 9 9
7 6 6 6 5 5 5 5 5 5 5 4 4 4 4 5 5 5 5 5 5 5 5 6 6 6 6 6 6 6 5 5 5 6 6 5 4 4 4 5 6 6 6 6 6 6 6 6 6 6 7 8 8 8 9 9 9 9 10 10 10 10 12 12 12 12 13 14 15 16 17 19 19 20 20 21 21 21 21 21 20 17 13 10 9 9
6 6 6 6 5 5 5 5 5 5 4 4 4 4 4 4 4 5 5 5 5 5 5 6 6 6 6 6 6 7 7 6 6 7 6 5 4 4 5 6 6 7 6 6 6 6 6 7 7 7 7 7 7 8 8 9 9 10 9 9 9 9 10 10 10 10 11 11 11 12 13 14 15 16 17 18 18 19 19 20 20 19 18 13 11 10
6 6 6 5 5 5 5 4 4 4 4 4 4 4 4 4 4 4 5 5 5 5 5 5 6 6 6 6 7 7 7 6 7 7 7 5 5 4 5 6 6 6 6 6 6 6 6 8 8 8 8 8 8 7 8 8 9 9 9 9 9 9 9 9 10 10 10 10 10 10 10 10 11 12 13 14 16 17 18 19 20 20 20 18 16 13
5 5 5 5 4 4 4 4 4 4 4 4 3 3 3 4 4 4 4 5 5 5 6 6 6 6 7 7 8 8 8 7 7 8 7 6 5 5 5 6 6 6 7 7 7 6 6 7 9 9 9 9 8 7 7 8 8 9 9 9 9 10 10 10 10 10 10 10 10 10 10 9 10 10 11 14 16 18 19 20 20 21 21 21 20 18
5 5 5 4 4 4 4 4 4 4 4 4 4 4 4 4 4 5 5 5 5 6 6 7 7 8 8 8 8 9 9 9 9 9 9 8 7 6 6 6 7 7 7 7 7 7 7 8 9 9 9 8 8 7 7 8 8 9 9 9 9 10 10 10 10 10 10 10 10 10 10 10 10 10 11 14 16 17 18 19 19 20 20 21 21 21
5 5 4 4 4 4 4 4 4 4 4 4 4 4 4 5 5 6 5 6 6 7 7 7 7 9 11 12 11 11 12 12 12 12 12 10 9 8 7 7 8 8 8 8 8 8 8 8 9 9 8 8 8 9 9 9 9 10 10 10 10 10 10 10 10 10 10 10 11 11 11 11 10 10 10 11 11 11 12 12 13 15 17 17 18 20
4 4 4 4 4 4 4 4 4 4 4 4 4 5 5 6 6 6 6 6 7 7 8 8 8 8 10 11 13 13 14 14 14 14 13 12 10 9 9 9 9 9 9 8 8 8 8 8 8 8 8 8 9 9 9 9 10 10 10 10 10 10 10 10 10 10 9 10 11 11 11 10 10 10 10 9 9 9 9 9 10 11 12 11 13 15
4 4 4 4 4 4 4 4 4 4 4 5 5 6 6 6 6 6 6 6 7 7 8 8 8 8 9 10 11 12 13 12 12 13 12 12 11 10 9 9 9 9 9 8 8 8 8 9 9 9 9 8 9 9 9 9 10 10 11 10 9 9 10 10 10 10 10 10 10 11 10 10 10 10 9 9 9 9 9 9 9 9 10 9 9 10
4 4 4 4 4 4 4 4 4 5 5 5 5 5 5 5 5 5 5 6 6 6 6 7 7 8 8 9 10 11 12 12 13 13 12 11 12 11 10 10 9 9 9 9 8 8 9 9 9 10 9 9 10 10 11 11 12 12 13 11 10 10 11 11 11 11 10 10 10 10 10 10 10 10 10 10 10 9 9 9 10 10 10 9 9 9
5 5 4 4 4 4 4 5 5 5 5 5 5 5 5 5 5 5 5 5 5 5 5 6 6 7 8 8 9 9 10 11 12 12 12 12 12 12 11 10 9 9 9 9 9 9 9 9 10 10 10 10 10 10 10 11 12 12 12 12 12 12 12 12 11 10 10 10 10 10 11 11 10 10 11 10 10 10 10 10 11 12 11 10 9 9
4 4 4 4 4 5 5 5 5 5 5 5 5 5 5 5 5 5 6 6 6 6 6 6 6 7 7 8 8 8 9 10 11 11 11 11 11 12 12 12 11 10 9 9 9 9 10 10 10 10 10 9 10 10 11 12 11 11 12 12 11 10 8 8 8 9 9 10 10 10 10 10 10 10 10 10 10 10 10 11 12 13 12 11 10 10
4 4 5 5 5 5 5 5 4 4 5 5 5 5 5 5 6 6 6 6 6 6 6 6 6 7 8 8 8 8 8 8 9 10 10 10 10 11 11 12 12 11 10 9 9 9 9 10 10 9 9 9 10 10 11 11 11 11 11 12 12 11 10 9 10 10 10 10 10 10 10 10 10 10 10 10 10 10 10 10 10 11 12 11 11 11
4 5 5 4 4 4 5 5 5 5 5 5 5 6 6 6 6 6 6 6 6 7 6 6 6 6 7 7 8 7 7 7 7 7 8 9 11 11 11 11 11 11 11 10 9 9 9 9 9 9 9 9 10 10 11 12 12 12 12 12 12 12 12 12 11 11 11 11 11 11 11 11 10 10 10 10 10 10 10 10 11 11 11 11 11 11
4 4 5 4 4 5 5 5 5 5 5 5 6 6 6 6 6 6 6 7 7 7 7 6 6 6 7 7 7 7 7 7 7 6 6 7 8 8 9 9 9 9 9 9 10 10 10 10 10 10 9 9 10 11 12 12 12 12 12 12 12 12 12 12 11 11 11 11 11 11 12 11 11 10 10 10 11 11 10 10 11 11 11 11 11 11
4 5 5 5 5 5 5 5 5 5 5 6 6 6 6 6 6 6 6 7 7 7 7 6 6 7 8 8 8 8 8 8 8 7 7 7 7 7 8 8 8 9 9 9 10 10 11 10 10 10 10 10 11 11 12 12 12 12 12 12 11 11 11 11 11 11 11 11 11 11 12 11 10 10 11 11 11 11 10 10 11 11 11 11 11 11
5 5 5 5 5 5 5 5 5 5 6 6 6 6 6 6 6 7 6 7 7 6 6 6 7 7 8 8 8 8 8 9 9 8 8 7 7 7 7 7 7 8 9 9 10 11 11 12 12 11 11 11 11 11 12 12 12 12 12 11 11 11 11 11 11 11 11 11 11 11 10 9 9 10 11 11 11 11 11 10 10 10 10 10 10 11
5 5 5 5 5 5 6 6 6 6 6 6 6 6 6 6 7 8 7 7 6 6 6 7 7 8 8 8 8 8 9 9 9 8 8 7 7 7 7 7 7 7 8 9 9 10 11 11 12 13 12 12 12 12 12 12 12 11 11 11 10 10 11 11 11 10 10 10 10 10 9 9 9 9 10 11 11 12 12 11 11 10 10 10 10 10
5 5 5 5 6 6 6 6 6 6 6 6 7 6 6 6 6 6 6 6 6 6 6 7 8 8 8 9 9 9 9 9 9 8 8 7 7 7 7 7 7 8 8 8 8 8 8 8 9 11 13 13 13 13 12 12 12 11 11 10 10 10 10 10 10 10 10 10 10 10 9 9 9 9 9 10 12 13 13 12 11 10 9 9 9 10
5 5 5 5 6 6 6 6 6 6 7 7 7 7 7 7 6 6 6 6 6 6 7 7 8 8 9 9 9 9 9 9 9 9 9 8 7 7 8 8 8 8 8 8 7 7 6 6 7 7 9 12 13 13 12 11 11 11 11 10 10 9 10 10 10 10 11 11 10 10 10 10 9 9 9 9 10 12 12 12 11 10 10 9 9 10
Wind_Direction
232 226 195 199 217 241 255 258 264 270 275 279 283 287 290 288 286 287 289 290 291 291 291 291 292 293 293 291 289 288 287 287 287 288 289 289 289 290 290 290 291 291 291 291 290 290 289 288 287 287 286 285 285 284 283 283 282 282 282 282 282 282 282 282 283 283 284 285 285 286 286 287 287 287 287 287 287 286 285 284 283 282 282 281 281 280
209 208 196 204 221 245 266 268 269 270 276 281 285 288 291 291 291 291 292 291 292 293 294 295 295 295 294 292 289 287 286 286 287 287 288 289 289 290 290 291 291 291 291 291 290 290 289 288 287 287 286 285 285 284 283 283 283 282 282 282 282 282 282 283 283 284 284 285 285 286 286 287 287 287 287 286 286 285 284 283 282 281 281 281 281 280
219 219 216 211 220 239 264 273 276 278 280 283 286 289 291 292 291 291 292 292 293 294 295 295 295 294 292 290 288 286 286 286 286 287 288 289 289 290 291 291 291 291 291 291 290 290 289 288 288 287 287 286 286 285 284 284 283 283 283 283 283 283 283 284 284 285 285 286 286 286 287 287 287 287 286 286 285 284 283 283 282 282 281 281 281 281
255 253 251 239 237 244 258 273 280 283 283 284 286 287 288 289 288 289 291 293 295 295 294 294 293 292 291 289 287 286 286 286 286 287 288 288 289 290 290 291 291 290 290 290 290 289 289 289 288 288 287 287 286 286 285 285 284 284 284 284 284 284 284 285 285 286 286 286 287 287 287 287 287 287 286 285 285 284 284 283 283 282 282 282 281 281
254 256 262 266 266 266 269 278 282 282 281 282 283 284 284 284 285 287 290 291 292 293 293 292 291 290 289 288 287 286 285 285 286 286 287 287 288 289 289 289 289 289 289 289 289 289 289 289 289 289 288 288 287 287 286 286 285 285 285 285 285 285 285 286 286 287 287 287 287 287 287 287 286 286 285 284 284 284 283 283 283 282 282 281 281 280
262 262 274 282 286 288 290 286 284 282 282 280 280 281 282 283 285 287 288 289 290 291 291 290 289 288 287 285 285 285 285 285 284 284 285 286 286 287 287 287 287 288 288 289 289 289 290 289 289 289 289 288 288 287 287 287 286 286 286 286 286 286 287 287 287 288 288 287 287 287 286 286 285 284 284 283 283 283 282 282 282 282 281 280 280 279
270 273 282 282 283 284 283 279 277 276 278 279 280 281 282 285 286 287 288 290 291 290 289 287 286 284 283 283 283 284 285 284 284 284 284 284 285 285 286 287 288 288 289 289 290 290 290 290 290 290 290 289 289 288 287 287 286 286 286 287 287 287 288 288 288 288 287 287 286 286 285 284 284 283 283 283 282 282 282 281 281 281 280 280 279 278
273 276 270 270 272 274 273 270 269 269 272 279 283 286 288 288 288 289 289 288 287 287 287 285 284 283 282 284 286 287 287 287 287 287 286 285 286 287 288 289 289 290 290 290 290 290 290 290 290 290 290 289 288 288 287 287 287 287 287 287 288 288 288 288 287 287 286 286 285 285 284 284 283 283 283 282 282 281 281 280 280 280 279 279 278 278
273 278 273 268 270 273 275 272 270 271 277 282 287 291 294 295 294 292 288 285 283 283 285 288 289 288 288 290 291 291 290 290 290 290 289 289 290 290 291 291 291 290 290 289 289 289 289 289 289 289 288 288 287 287 287 286 287 287 287 287 287 287 287 287 286 286 286 285 285 285 284 284 283 283 282 281 281 280 279 279 279 278 278 278 277 277
262 266 269 266 265 267 273 276 278 281 285 284 284 285 289 291 292 291 288 285 285 286 288 292 294 295 295 295 294 292 291 288 286 285 285 286 287 288 289 289 288 288 288 288 288 288 288 288 288 288 287 287 286 286 286 286 286 286 286 286 286 286 286 286 286 286 286 286 285 285 284 283 283 282 281 280 280 279 278 278 278 277 277 277 276 276
255 258 263 266 266 267 270 278 283 284 280 275 272 269 268 275 282 289 292 294 296 297 296 294 295 296 297 296 294 292 290 287 285 283 282 284 285 286 286 286 286 286 287 288 288 288 288 288 288 287 287 287 286 286 286 285 285 285 285 285 286 286 286 286 286 286 286 285 285 284 283 283 282 281 280 280 279 279 278 278 277 277 277 276 276 276
263 267 272 278 281 281 278 277 273 270 267 268 270 271 269 273 283 292 297 300 302 303 301 297 294 293 294 295 294 292 289 287 286 285 285 285 286 287 289 289 290 290 291 291 291 290 290 290 290 289 289 288 287 286 285 285 285 285 285 285 286 286 286 286 286 286 286 285 284 284 283 282 282 281 281 280 280 279 279 278 278 277 277 276 276 275
263 271 277 277 277 277 276 273 271 268 268 278 287 292 293 295 297 296 294 296 299 301 300 297 293 291 289 288 288 287 286 285 286 287 288 290 293 297 299 300 300 300 298 296 295 294 293 293 292 290 289 287 286 285 284 284 285 285 285 286 287 287 287 287 287 287 286 286 285 284 284 283 283 282 282 281 281 280 280 279 278 278 277 276 276 276
268 273 273 270 269 270 271 275 279 284 291 294 294 293 293 296 296 295 293 294 296 297 297 294 292 290 287 283 282 282 284 286 287 288 290 295 301 305 306 304 302 301 300 298 296 294 295 294 292 290 287 286 285 285 285 285 286 286 287 288 288 289 289 289 288 288 287 287 286 286 285 284 284 283 282 282 281 281 280 279 279 278 277 277 276 276
272 273 271 271 272 275 279 286 293 297 298 293 290 289 289 290 291 294 295 296 296 295 293 289 288 287 285 283 283 284 286 289 292 295 297 299 303 306 306 303 301 300 298 295 294 293 294 292 290 287 286 285 285 286 288 288 289 289 289 289 289 289 289 289 289 289 288 288 287 286 286 285 284 284 283 282 282 281 281 280 279 279 278 277 276 276
277 277 278 278 279 283 292 300 300 297 292 288 287 287 289 290 295 299 299 295 294 292 288 289 289 288 283 283 286 290 293 294 297 300 302 300 302 305 305 303 300 298 295 293 292 291 291 288 287 286 285 286 287 288 289 289 289 289 289 289 289 289 289 289 289 288 288 287 287 286 286 285 284 284 283 283 282 282 281 281 280 279 279 278 277 276
277 277 279 282 285 288 293 290 285 281 280 280 282 286 292 299 302 300 291 288 286 283 281 285 289 292 290 289 291 296 300 301 303 304 302 300 302 304 303 300 297 294 292 290 289 289 289 287 286 285 285 286 288 289 289 289 289 289 289 289 289 288 288 288 288 288 287 287 287 286 286 285 285 284 283 283 282 282 282 281 281 280 279 278 277 277
267 272 278 280 283 284 284 280 277 277 279 284 292 299 303 300 294 287 280 277 276 277 278 281 284 287 292 293 295 300 307 308 308 306 302 298 297 298 298 295 292 290 289 287 286 286 286 285 284 284 285 287 288 289 289 288 288 288 288 288 288 288 288 288 288 288 287 287 287 286 286 285 285 284 284 283 283 283 282 282 281 280 279 279 278 277
274 277 279 278 277 276 275 274 277 282 289 297 303 303 296 286 278 272 269 269 269 272 276 278 279 282 286 288 293 301 310 310 309 305 298 295 294 294 294 291 288 286 284 283 283 284 283 283 282 283 284 286 287 287 287 288 288 288 288 289 289 289 289 289 288 288 288 287 287 286 286 285 285 284 284 284 283 283 282 282 281 280 279 278 277 277
279 274 270 273 275 275 274 276 281 287 292 296 293 287 281 276 271 267 266 265 266 269 272 276 278 279 281 285 291 300 309 309 305 298 293 290 290 290 290 287 286 284 283 282 283 283 284 283 284 284 284 285 286 287 287 288 288 289 289 289 290 290 289 289 289 288 288 288 287 287 286 286 285 285 284 283 283 282 282 281 280 279 278 278 277 276
276 274 272 279 283 284 284 286 286 286 287 288 286 283 280 275 271 268 268 271 273 273 272 273 276 280 285 289 294 298 303 301 296 292 289 287 285 285 287 286 285 284 282 282 282 283 284 284 284 284 285 286 287 288 288 288 289 289 289 289 290 290 290 289 289 289 289 288 287 287 286 286 285 284 284 283 282 282 281 281 280 279 279 278 277 276
280 281 286 290 289 286 283 282 280 280 282 282 279 276 274 274 275 277 281 281 280 279 277 279 283 288 292 291 290 290 291 287 285 284 285 283 282 282 283 282 281 280 281 283 284 285 285 285 284 285 286 287 287 288 288 288 288 288 289 289 289 289 289 289 289 289 289 288 287 287 286 285 285 284 284 283 283 283 282 282 281 281 280 279 279 278
284 286 288 286 282 278 278 279 280 280 280 275 271 269 270 274 277 280 283 284 285 286 287 289 289 287 284 281 281 281 280 275 273 273 275 276 278 280 284 285 284 283 281 284 286 288 287 286 286 286 287 287 287 287 287 288 288 288 288 289 289 289 289 289 289 288 288 288 287 286 286 286 285 285 285 285 284 284 284 283 283 282 281 280 279 278
281 279 278 276 276 277 279 282 282 280 278 275 273 273 272 272 274 278 283 286 288 288 288 286 284 281 278 278 278 278 275 271 267 264 266 272 278 283 288 287 284 282 282 285 289 290 289 287 286 286 286 287 287 287 287 287 288 288 288 288 288 288 288 288 288 288 287 287 287 287 287 287 287 286 286 286 285 285 284 283 283 282 281 280 279 278
277 276 276 277 278 279 278 277 277 278 280 283 287 289 290 290 291 292 290 288 286 285 284 283 282 280 280 280 280 278 276 271 265 260 261 271 276 280 284 285 285 285 286 288 289 289 288 287 287 287 288 287 287 287 287 287 287 287 287 287 287 287 287 287 287 287 288 288 288 288 288 288 287 287 286 286 285 284 284 283 282 282 281 280 279 278
279 279 280 280 280 280 280 281 282 284 287 289 293 297 300 301 299 296 290 286 284 284 285 283 281 279 281 281 280 279 278 272 265 259 261 270 277 281 286 287 286 285 285 287 288 289 290 290 291 291 290 289 287 286 286 286 285 285 285 285 285 286 286 287 288 288 288 288 288 288 288 288 287 287 286 286 285 285 284 283 283 282 281 281 280 279
277 278 280 281 282 283 284 285 286 286 286 286 288 291 295 297 294 289 283 282 281 281 280 278 277 279 281 280 279 280 285 284 277 270 265 271 276 281 284 285 283 283 286 288 291 293 293 292 291 290 288 286 285 284 283 284 284 284 284 285 286 287 287 287 288 288 287 287 287 287 287 287 287 287 286 286 285 285 284 284 283 282 282 281 280 278
272 276 280 282 283 284 284 283 281 281 280 281 283 285 287 286 282 278 274 276 277 276 272 272 275 279 281 281 283 286 289 286 278 271 266 267 269 274 280 283 285 288 291 292 293 292 289 286 285 284 283 282 281 282 283 285 286 287 287 287 287 287 287 286 286 286 286 286 287 287 287 287 287 286 286 286 285 285 284 284 283 283 282 281 279 277
264 270 277 278 278 277 276 275 275 275 276 278 280 281 280 274 269 267 269 272 272 270 267 267 270 274 279 283 286 286 283 275 267 263 262 263 266 272 281 287 291 294 297 297 294 290 283 280 280 281 282 284 286 288 290 291 291 290 289 288 287 286 285 285 285 285 286 286 286 286 287 286 286 286 286 285 285 285 284 284 284 284 282 280 278 275
275 275 274 270 268 267 267 268 270 273 275 276 276 275 270 264 260 260 263 265 264 263 264 266 268 271 277 283 285 282 275 267 263 261 266 269 272 278 288 291 294 297 301 301 297 292 285 281 281 284 289 292 294 295 296 295 293 291 289 287 286 285 285 285 285 286 286 286 286 286 286 286 286 285 285 285 285 285 285 285 285 284 281 279 276 274
287 282 276 272 269 268 269 270 271 273 274 273 272 269 263 258 256 256 257 256 256 258 261 265 267 269 272 277 279 279 276 278 291 307 308 285 280 283 290 291 291 292 295 295 296 296 295 292 291 292 297 298 297 296 293 292 290 289 288 288 287 286 286 286 286 286 286 286 286 286 286 286 286 286 286 285 285 285 284 284 284 283 280 277 275 273
286 283 281 282 281 279 276 273 271 271 271 269 266 261 257 255 255 256 257 255 255 256 259 263 265 266 266 265 267 270 274 282 298 308 307 292 283 282 285 286 287 288 289 285 285 287 293 296 299 300 300 297 294 291 289 289 288 288 288 288 287 286 287 287 287 287 287 287 287 287 287 287 286 286 285 285 284 283 283 283 282 281 279 276 274 273
287 287 286 285 283 279 273 269 267 266 267 266 265 261 257 255 255 256 256 255 255 256 258 262 264 266 266 264 264 265 269 274 283 290 289 283 280 280 283 284 286 288 289 283 278 276 278 286 293 297 295 292 290 289 289 288 288 287 287 287 287 287 288 288 289 288 288 288 288 288 287 287 286 285 284 283 283 282 281 281 280 279 277 275 273 272
287 286 284 282 279 274 270 267 266 265 264 264 264 262 261 258 256 254 253 253 253 254 257 260 264 267 268 268 267 267 268 270 275 279 282 280 280 282 285 285 286 287 289 285 281 278 275 280 285 291 293 291 289 288 289 288 287 286 286 286 286 288 290 291 291 290 290 289 288 288 287 286 285 284 283 282 281 281 280 280 279 278 276 274 272 271
285 283 281 279 276 274 271 270 270 269 268 266 265 264 264 264 262 261 260 259 258 257 257 260 262 265 267 269 271 271 271 273 278 282 285 285 284 285 285 282 283 285 287 285 284 283 281 282 285 288 292 292 290 288 286 286 287 288 287 287 288 289 290 291 291 290 290 289 287 286 285 285 284 283 282 281 281 281 281 280 280 279 277 275 273 270
285 283 280 278 276 276 277 278 279 280 279 278 277 276 274 272 270 268 267 266 266 265 264 262 262 262 262 264 267 269 272 277 281 284 285 283 283 282 281 279 281 283 284 283 282 281 282 284 285 286 288 289 290 290 288 289 291 292 291 290 289 288 288 289 289 289 289 287 286 285 284 283 283 282 281 281 281 281 281 281 280 279 278 276 273 271
281 280 280 280 282 283 285 286 286 286 286 285 283 283 281 279 277 275 273 271 270 269 268 266 263 260 258 259 261 265 270 275 277 278 278 277 277 276 275 276 278 278 278 279 280 281 281 283 285 285 284 284 287 291 295 297 296 294 291 291 290 290 289 288 287 286 285 283 282 282 282 282 282 281 281 281 282 281 281 281 280 279 278 276 274 272
278 280 284 287 289 289 290 290 290 290 289 289 289 289 288 286 283 281 278 274 270 267 265 263 261 259 257 258 259 261 266 269 271 272 272 271 271 270 269 272 272 271 268 270 273 276 278 281 283 285 285 283 283 286 292 295 295 293 292 292 291 290 289 287 285 283 281 281 282 282 282 283 283 282 282 282 281 281 280 279 278 278 277 276 274 272
279 283 288 289 290 291 291 292 293 295 295 295 294 294 292 288 284 280 276 273 268 265 262 262 262 261 259 258 259 260 262 263 264 264 264 262 261 261 262 265 267 267 266 265 266 268 270 273 276 279 283 285 286 287 288 289 289 290 293 293 291 287 284 285 284 284 284 284 285 285 284 283 282 281 280 279 278 277 276 276 275 275 275 276 275 273
283 285 287 287 289 291 293 294 296 298 298 297 295 293 288 284 281 278 275 273 271 270 268 268 267 266 265 263 262 260 260 259 258 257 256 252 250 250 254 258 262 265 266 264 262 261 262 266 269 271 274 278 283 285 286 285 285 287 291 292 290 287 287 288 289 288 287 285 283 282 281 280 279 278 277 276 275 273 272 272 272 272 272 272 274 274
284 285 285 287 290 292 293 294 296 297 297 295 292 287 284 283 282 281 280 277 275 274 274 273 271 270 268 266 264 263 261 260 258 255 252 246 243 243 248 252 257 262 265 264 262 261 260 263 266 269 271 273 276 278 279 280 281 284 286 284 284 286 289 289 288 286 283 280 278 277 278 279 279 279 278 276 274 272 270 270 270 270 269 268 268 269
282 284 286 291 295 298 298 297 295 294 292 288 285 284 284 286 288 288 288 286 283 281 279 279 278 277 275 272 269 266 264 261 257 254 250 244 240 240 243 247 252 256 261 263 263 261 260 261 264 267 269 272 274 276 277 278 279 280 279 279 282 285 287 284 281 279 279 279 279 280 281 282 282 281 280 278 276 273 270 268 267 266 266 265 264 262
282 286 291 295 297 298 298 296 294 291 289 286 284 285 286 288 289 290 289 288 287 286 284 283 282 281 281 280 277 273 267 262 260 257 255 249 243 240 242 245 249 252 255 260 262 263 262 261 262 263 266 269 271 273 276 279 280 279 277 277 280 284 285 283 282 282 282 282 282 282 281 280 279 279 278 277 275 273 271 267 265 263 262 262 261 260
287 290 293 295 295 294 292 290 290 290 290 289 289 289 289 289 288 287 285 285 285 285 285 285 283 282 281 280 280 280 278 274 270 267 265 261 254 249 247 248 249 250 250 254 259 264 267 265 263 263 265 267 268 270 273 276 278 278 277 277 276 275 275 280 284 286 284 280 278 276 275 276 276 277 277 275 274 272 270 268 265 263 261 260 259 258
289 291 292 292 292 291 290 291 292 292 291 290 289 289 288 287 285 283 282 283 284 285 285 286 286 284 281 281 283 285 286 285 281 277 272 268 263 259 256 255 253 252 251 251 253 257 263 266 268 269 269 268 268 269 272 275 276 277 276 275 274 272 270 274 277 279 278 277 276 275 274 275 276 277 277 275 273 272 270 269 268 266 263 260 258 256
287 288 289 290 290 289 290 292 293 292 290 288 287 286 285 285 284 283 282 282 283 283 283 283 282 281 281 285 287 289 289 287 285 283 279 275 272 268 264 262 260 258 256 254 254 254 256 261 266 271 274 272 269 267 267 270 272 274 275 274 274 273 272 273 273 273 274 275 275 275 276 276 276 276 275 274 274 273 271 269 267 265 264 261 259 256
286 288 289 289 290 290 291 291 291 289 287 286 285 285 285 285 284 283 281 279 279 280 281 281 278 277 279 283 285 287 288 289 288 287 286 285 282 280 277 272 268 265 263 262 260 259 257 258 260 263 268 270 271 270 268 267 268 270 272 274 274 274 273 274 273 273 273 273 274 275 276 276 274 273 272 274 274 274 272 270 267 265 263 261 259 257
289 289 289 291 291 291 290 290 289 287 285 285 286 285 284 283 282 281 280 280 280 281 282 281 279 277 277 278 279 281 283 286 288 289 290 289 288 286 283 281 277 274 270 269 267 265 263 260 257 256 257 261 265 269 270 269 267 267 270 272 273 273 274 274 274 274 273 271 270 270 271 271 272 273 275 276 276 276 275 273 270 266 263 262 260 258
286 287 288 289 288 287 287 287 287 286 285 285 286 286 284 282 281 280 280 280 280 279 278 278 278 278 278 278 278 279 281 283 286 288 290 290 290 290 288 287 286 283 280 277 273 271 268 263 257 252 249 250 255 262 267 267 267 267 269 270 271 272 273 274 275 276 275 274 273 270 268 269 270 272 275 276 277 278 278 277 274 271 267 263 261 259
279 280 282 283 283 284 285 286 286 286 286 286 287 287 287 284 281 278 276 276 275 274 273 275 276 278 279 280 281 282 283 285 286 287 288 289 291 291 291 291 291 291 288 285 281 278 276 271 262 253 246 244 246 252 261 265 268 269 270 270 271 272 274 277 280 281 282 283 282 280 278 276 274 273 272 274 276 279 281 279 277 274 271 267 264 262
278 277 276 278 281 283 285 286 287 287 287 287 288 288 287 286 283 280 277 276 274 274 273 273 273 275 277 280 281 282 283 284 285 285 287 288 290 291 291 291 292 293 292 291 290 288 286 284 279 270 256 248 245 246 255 263 269 273 275 274 275 277 279 282 285 287 288 288 288 287 285 281 278 275 272 273 276 279 282 281 280 278 276 274 271 269